Waarnemingen

Advertentie
Mijn weer
Trier-Petrisberg, Duitsland (10609): temperatuur & dauwpunt: 20.03.2017 00:00:00 - 26.03.2017 00:00:00 (CET)Trier-Petrisberg, Duitsland (10609): temperatuur 5cm & temperatuur -5cm: 20.03.2017 00:00:00 - 26.03.2017 00:00:00 (CET)Trier-Petrisberg, Duitsland (10609): temperatuur -20cm & temperatuur -100cm: 20.03.2017 00:00:00 - 26.03.2017 00:00:00 (CET)Trier-Petrisberg, Duitsland (10609): windsnelheid & windstoten: 20.03.2017 00:00:00 - 26.03.2017 00:00:00 (CET)Trier-Petrisberg, Duitsland (10609): windrichting: 20.03.2017 00:00:00 - 26.03.2017 00:00:00 (CET)Trier-Petrisberg, Duitsland (10609): luchtdruk: 20.03.2017 00:00:00 - 26.03.2017 00:00:00 (CET)Trier-Petrisberg, Duitsland (10609): zicht: 20.03.2017 00:00:00 - 26.03.2017 00:00:00 (CET)Trier-Petrisberg, Duitsland (10609): Zonneschijnduur: 20.03.2017 00:00:00 - 26.03.2017 00:00:00 (CET)Trier-Petrisberg, Duitsland (10609): neerslag: 20.03.2017 00:00:00 - 26.03.2017 00:00:00 (CET)
Datum & Tijd tt [°C] td [°C] tt 5cm [°C] tt -5cm [°C] tt -20cm [°C] tt -100cm [°C] ff [km/u] ff [kn] fx [km/u] fx [kn] dd ppp [hPa] vv [km] sd [min] rr [mm]
26.03.2017 00:00:00 9,4 -1,1 7,8 8,0 10,4 8,6 26 14 44 24 NO 1021,7 35 0 0,0
25.03.2017 23:00:00 10,1 -1,2 8,4 8,6 10,7 8,5 27 15 45 24 NO 1021,6 32 0 0,0
25.03.2017 22:00:00 10,8 -0,7 9,1 9,3 11,0 8,5 27 14 39 21 NO 1022,0 32 0 0,0
25.03.2017 21:00:00 11,3 -0,2 9,5 10,1 11,2 8,5 21 12 32 18 NO 1021,7 33 0 0,0
25.03.2017 20:00:00 11,4 -0,1 9,0 11,3 11,3 8,5 16 8 29 16 NO 1021,6 36 0 0,0
25.03.2017 19:00:00 12,7 0,1 10,9 13,0 11,3 8,5 19 11 41 22 NO 1021,2 32 52 0,0
25.03.2017 18:00:00 14,2 1,0 14,5 15,0 11,1 8,6 24 13 39 21 NO 1021,0 30 60 0,0
25.03.2017 17:00:00 15,3 1,4 16,8 16,8 10,7 8,6 29 16 50 27 NO 1021,3 27 60 0,0
25.03.2017 16:00:00 16,0 1,5 18,3 18,0 10,2 8,6 28 15 46 25 NO 1021,8 27 60 0,0
25.03.2017 15:00:00 15,9 -4,0 18,9 18,0 9,6 8,6 36 20 61 33 ONO 1022,4 24 60 0,0
25.03.2017 14:00:00 16,1 -3,7 18,7 17,3 9,0 8,6 36 19 55 30 NO 1022,8 23 60 0,0
25.03.2017 13:00:00 15,3 1,4 17,8 16,2 8,4 8,6 26 14 51 28 ONO 1023,7 24 60 0,0
25.03.2017 12:00:00 14,1 2,1 16,6 14,1 7,9 8,6 31 17 46 25 ONO 1024,5 18 60 0,0
25.03.2017 11:00:00 11,2 3,3 13,7 11,5 7,6 8,6 26 14 46 25 NO 1025,4 14 60 0,0
25.03.2017 10:00:00 9,9 3,1 10,8 9,0 7,5 8,6 18 10 36 20 NO 1026,1 13 60 0,0
25.03.2017 09:00:00 7,2 2,7 7,7 6,1 7,6 8,6 20 11 41 22 NO 1026,9 9 60 0,0
25.03.2017 08:00:00 4,8 1,9 4,0 4,3 7,7 8,6 27 14 40 21 NO 1027,5 8 54 0,0
25.03.2017 07:00:00 3,5 1,6 1,1 4,0 7,9 8,6 8 5 24 13 ONO 1027,8 6 0 0,0
25.03.2017 06:00:00 3,8 1,9 2,0 4,4 8,2 8,6 11 6 25 14 N 1027,5 5 0 0,0
25.03.2017 05:00:00 4,4 2,1 2,7 4,7 8,4 8,5 14 8 31 17 NNO 1027,7 6 0 0,0
25.03.2017 04:00:00 5,0 2,3 3,5 5,1 8,6 8,5 21 11 34 19 NO 1028,0 6 0 0,0
25.03.2017 03:00:00 5,4 2,4 3,7 5,4 8,8 8,5 16 9 22 12 NNO 1028,3 6 0 0,0
25.03.2017 02:00:00 6,0 2,6 4,5 5,9 9,1 8,5 16 9 29 16 NNO 1028,7 7 0 0,0
25.03.2017 01:00:00 6,3 2,7 4,3 6,4 9,3 8,5 10 6 31 17 NNO 1029,0 7 0 0,0
25.03.2017 00:00:00 7,3 3,0 5,9 7,0 9,5 8,5 24 13 34 19 NNO 1028,6 8 0 0,0
24.03.2017 23:00:00 8,5 3,4 6,7 7,5 9,8 8,5 21 12 31 17 NO 1028,2 9 0 0,0
24.03.2017 22:00:00 9,3 3,6 7,7 8,1 10,0 8,5 17 9 39 21 NO 1028,4 9 0 0,0
24.03.2017 21:00:00 9,8 4,0 8,4 8,6 10,2 8,5 24 13 35 19 NO 1027,8 13 0 0,0
24.03.2017 20:00:00 9,6 4,5 7,3 9,4 10,3 8,5 11 6 27 15 NNO 1027,4 12 0 0,0
24.03.2017 19:00:00 10,4 4,9 9,0 10,6 10,4 8,5 16 9 26 14 NNO 1026,8 14 0 0,0
24.03.2017 18:00:00 11,2 4,9 10,8 12,1 10,3 8,5 17 9 36 19 NNO 1026,2 15 11 0,0
24.03.2017 17:00:00 11,7 5,0 12,1 13,1 10,1 8,4 22 12 38 20 NNO 1025,7 16 0 0,0
24.03.2017 16:00:00 12,3 5,2 13,5 14,4 9,8 8,4 22 12 37 20 NNO 1025,7 19 57 0,0
24.03.2017 15:00:00 11,9 4,9 13,9 14,3 9,5 8,4 19 11 39 21 NNO 1025,6 18 51 0,0
24.03.2017 14:00:00 11,1 4,5 13,5 13,8 9,2 8,4 21 11 40 22 ONO 1026,1 14 44 0,0
24.03.2017 13:00:00 10,3 4,4 12,0 12,5 8,9 8,4 26 14 42 23 NO 1026,4 12 20 0,0
24.03.2017 12:00:00 9,5 4,2 10,9 11,0 8,7 8,4 24 13 36 19 ONO 1026,9 10 0 0,0
24.03.2017 11:00:00 9,4 4,3 10,7 10,4 8,5 8,4 16 9 29 16 ONO 1026,4 9 2 0,0
24.03.2017 10:00:00 9,2 4,6 10,1 9,2 8,5 8,4 18 10 28 15 ONO 1025,6 9 7 0,0
24.03.2017 09:00:00 8,7 4,9 9,2 7,9 8,5 8,4 16 9 24 13 ONO 1024,3 9 0 0,0
24.03.2017 08:00:00 7,9 4,7 7,3 7,1 8,6 8,4 14 8 35 19 ONO 1023,5 8 0 0,0
24.03.2017 07:00:00 7,6 4,8 7,0 6,9 8,7 8,4 23 13 41 22 NO 1022,1 9 0 0,0
24.03.2017 06:00:00 7,1 5,3 6,6 6,8 8,8 8,4 22 12 32 17 NO 1022,5 7 0 0,0
24.03.2017 05:00:00 6,9 5,2 6,2 6,8 9,0 8,3 24 13 44 24 NO 1022,2 7 0 0,0
24.03.2017 04:00:00 7,2 5,0 6,3 7,1 9,2 8,3 23 12 35 19 NO 1021,9 12 0 0,0
24.03.2017 03:00:00 7,9 5,3 6,5 7,5 9,4 8,3 18 10 30 16 NO 1022,0 15 0 0,0
24.03.2017 02:00:00 8,7 5,5 7,4 7,9 9,5 8,3 19 10 31 17 NO 1020,9 15 0 0,0
24.03.2017 01:00:00 8,9 5,7 7,8 8,4 9,7 8,3 16 9 22 12 NNO 1020,2 18 0 0,0
24.03.2017 00:00:00 10,1 6,0 9,3 8,9 9,9 8,3 14 8 33 18 NO 1019,6 22 0 0,0
23.03.2017 23:00:00 10,2 5,9 9,3 9,0 10,1 8,3 22 12 34 19 NO 1018,0 21 0 0,0
23.03.2017 22:00:00 10,2 5,8 8,9 9,3 10,3 8,3 24 13 38 21 NO 1017,0 21 0 0,0
23.03.2017 21:00:00 10,5 6,1 8,5 10,0 10,4 8,3 21 12 41 22 NO 1016,3 20 0 0,0
23.03.2017 20:00:00 11,2 6,0 10,1 10,9 10,6 8,3 23 12 36 19 ONO 1015,8 18 0 0,0
23.03.2017 19:00:00 11,7 6,0 9,8 12,4 10,5 8,3 16 9 32 18 ONO 1015,2 16 10 0,0
23.03.2017 18:00:00 14,0 6,5 14,6 14,2 10,3 8,3 11 6 27 15 ONO 1014,4 24 39 0,0
23.03.2017 17:00:00 14,1 5,6 15,3 15,9 9,9 8,3 19 11 27 14 NO 1013,8 31 50 0,0
23.03.2017 16:00:00 14,9 5,5 17,8 16,8 9,5 8,3 15 8 22 12 NO 1014,0 37 34 0,0
23.03.2017 15:00:00 14,7 5,2 17,5 16,2 8,9 8,3 10 5 22 12 ONO 1014,3 44 28 0,0
23.03.2017 14:00:00 14,6 4,3 17,7 17,2 8,2 8,4 12 6 23 13 O 1014,0 37 60 0,0
23.03.2017 13:00:00 14,8 4,8 19,1 15,1 7,6 8,4 10 5 26 14 ZO 1014,2 41 55 0,0
23.03.2017 12:00:00 12,6 6,5 15,7 13,9 7,0 8,4 14 7 30 16 NNO 1014,3 14 60 0,0
23.03.2017 11:00:00 9,9 5,5 11,6 11,2 6,6 8,4 16 9 29 15 NO 1014,6 12 58 0,0
23.03.2017 10:00:00 8,6 5,3 9,6 8,4 6,4 8,4 13 7 21 11 NNO 1014,6 10 60 0,0
23.03.2017 09:00:00 6,2 3,9 6,4 5,4 6,5 8,4 16 9 27 15 NO 1014,8 7 60 0,0
23.03.2017 08:00:00 3,7 3,5 2,6 3,2 6,6 8,4 12 7 16 9 NO 1014,8 5 10 0,0
23.03.2017 07:00:00 2,1 2,0 -0,2 2,9 6,8 8,4 6 3 21 11 O 1014,6 2,8 0 0,0
23.03.2017 06:00:00 2,3 1,9 0,3 3,2 7,0 8,4 12 7 21 11 NNO 1013,9 4,3 0 0,0
23.03.2017 05:00:00 2,9 2,3 0,0 3,6 7,2 8,4 9 5 19 11 NNO 1013,7 4,8 0 0,0
23.03.2017 04:00:00 3,3 2,8 0,9 4,1 7,4 8,4 5 3 22 12 NO 1013,9 4,9 0 0,0
23.03.2017 03:00:00 4,4 3,0 3,2 4,6 7,5 8,5 17 9 24 13 NO 1013,3 7 0 0,0
23.03.2017 02:00:00 4,7 3,2 3,7 5,0 7,7 8,5 17 9 21 11 NO 1013,5 7 0 0,0
23.03.2017 01:00:00 4,9 3,2 3,5 5,4 7,8 8,5 10 6 18 10 NO 1014,0 8 0 0,0
23.03.2017 00:00:00 5,1 3,3 4,3 5,6 7,9 8,5 15 8 19 10 NO 1013,6 7 0 0,0
22.03.2017 23:00:00 5,6 3,1 4,5 5,7 8,1 8,5 11 6 16 9 ONO 1014,1 10 0 0,0
22.03.2017 22:00:00 5,2 3,2 3,7 5,9 8,2 8,5 10 5 14 7 NO 1013,7 10 0 0,0
22.03.2017 21:00:00 5,6 3,1 3,7 6,3 8,4 8,5 6 4 15 8 O 1013,6 12 0 0,0
22.03.2017 20:00:00 5,8 3,3 3,4 6,9 8,5 8,5 9 5 16 9 OZO 1013,2 16 0 0,0
22.03.2017 19:00:00 6,4 3,4 4,8 7,8 8,5 8,5 11 6 16 9 ONO 1013,4 38 0 0,0
22.03.2017 18:00:00 7,7 3,2 7,6 8,6 8,5 8,5 6 3 14 8 O 1013,2 48 0 0,0
22.03.2017 17:00:00 7,6 4,0 7,7 8,8 8,4 8,5 6 3 14 8 NO 1013,2 36 0 0,0
22.03.2017 16:00:00 7,4 3,6 7,7 9,1 8,3 8,5 10 5 14 7 NNO 1013,4 40 0 0,0
22.03.2017 15:00:00 7,9 2,9 8,5 9,2 8,2 8,6 5 3 14 7 ZZW 1013,6 63 0 0,0
22.03.2017 14:00:00 7,3 3,3 7,8 8,9 8,1 8,6 8 4 16 8 ZO 1014,0 49 0 0,0
22.03.2017 13:00:00 6,5 4,5 7,3 8,8 7,9 8,6 10 6 17 9 ONO 1014,5 19 0 0,0
22.03.2017 12:00:00 5,9 4,5 6,7 9,0 7,7 8,6 9 5 13 7 NNO 1015,0 13 0 0,0
22.03.2017 11:00:00 4,9 4,3 6,9 8,1 7,6 8,6 3 2 7 4 NO 1015,5 7 0 0,0
22.03.2017 10:00:00 3,3 3,3 4,6 6,2 7,7 8,6 5 3 11 6 NNO 1015,8 2,5 0 0,0
22.03.2017 09:00:00 2,6 2,6 3,2 5,7 7,7 8,6 8 4 12 6 NNO 1015,7 0,5 0 0,0
22.03.2017 08:00:00 2,4 2,4 2,8 5,6 7,8 8,6 5 3 12 6 N 1015,4 0,2 0 0,0
22.03.2017 07:00:00 2,2 2,2 2,6 5,6 7,9 8,6 6 3 10 5 N 1015,1 0,2 0 0,0
22.03.2017 06:00:00 2,3 2,3 2,6 5,7 8,0 8,6 6 3 8 5 N 1015,3 0,1 0 0,0
22.03.2017 05:00:00 2,6 2,6 3,0 5,9 8,1 8,6 3 1 6 3 NO 1015,6 0,1 0 0,0
22.03.2017 04:00:00 2,7 2,7 3,1 6,1 8,2 8,6 2 1 6 3 ZO 1015,6 0,1 0 0,0
22.03.2017 03:00:00 3,0 3,0 3,5 6,2 8,4 8,6 3 2 7 4 ONO 1015,4 0,1 0 0,0
22.03.2017 02:00:00 3,5 3,5 3,8 6,3 8,5 8,6 4 2 6 4 ONO 1015,4 0,1 0 0,0
22.03.2017 01:00:00 4,3 4,3 4,4 6,4 8,6 8,6 2 1 5 3 ZZO 1015,6 0,2 0 0,0
22.03.2017 00:00:00 4,8 4,8 4,4 6,1 8,8 8,6 1 1 6 4 NW 1015,9 0,3 0 0,0
21.03.2017 23:00:00 4,7 4,3 2,7 6,6 9,0 8,6 2 1 6 3 ZO 1015,4 12 0 0,0
21.03.2017 22:00:00 5,5 4,7 4,5 7,2 9,1 8,6 3 1 5 3 OZO 1014,9 23 0 0,0
21.03.2017 21:00:00 6,0 4,9 4,8 7,6 9,3 8,6 0 0 6 3 N 1014,6 26 0 0,0
21.03.2017 20:00:00 6,1 5,0 5,0 8,1 9,4 8,6 4 2 9 5 Z 1014,3 33 0 0,0
21.03.2017 19:00:00 6,6 5,0 5,9 8,7 9,4 8,6 6 3 13 7 ZW 1013,3 51 0 0,0
21.03.2017 18:00:00 7,0 4,7 6,9 9,3 9,5 8,6 10 5 16 9 ZW 1012,8 70 0 0,0
21.03.2017 17:00:00 6,9 4,0 7,3 9,6 9,4 8,6 12 7 16 9 ZW 1012,5 70 0 0,0
21.03.2017 16:00:00 7,3 4,5 7,1 9,8 9,4 8,6 9 5 23 12 WZW 1012,1 70 0 0,3
21.03.2017 15:00:00 7,5 6,0 7,7 9,9 9,4 8,6 4 2 25 14 WZW 1012,1 20 0 0,9
21.03.2017 14:00:00 7,2 5,4 7,0 9,9 9,3 8,6 12 7 31 17 WNW 1011,8 6 0 0,4
21.03.2017 13:00:00 10,3 4,5 10,2 10,6 9,2 8,6 19 10 35 19 W 1010,8 67 0 0,0
21.03.2017 12:00:00 9,8 5,3 10,0 10,2 9,0 8,6 14 7 39 21 W 1010,9 70 0 0,0
21.03.2017 11:00:00 9,9 6,6 10,2 10,3 8,9 8,6 20 11 33 18 WZW 1010,5 47 0 0,0
21.03.2017 10:00:00 9,3 7,8 9,8 9,4 8,8 8,6 18 10 28 15 WZW 1010,4 30 0 0,0
21.03.2017 09:00:00 8,3 7,9 8,5 8,4 8,9 8,6 18 10 25 14 WZW 1010,2 18 0 1,3
21.03.2017 08:00:00 8,0 7,8 7,9 8,2 8,9 8,6 16 9 32 17 WZW 1010,0 3,6 0 0,6
21.03.2017 07:00:00 7,8 7,7 7,7 8,1 8,9 8,6 21 12 33 18 ZW 1010,0 6 0 0,9
21.03.2017 06:00:00 7,8 7,7 7,7 8,1 9,0 8,6 20 11 37 20 ZW 1009,7 3,9 0 0,2
21.03.2017 05:00:00 7,7 7,6 7,6 8,2 9,0 8,6 22 12 33 18 ZZW 1009,7 7 0 0,2
21.03.2017 04:00:00 8,0 7,3 7,7 8,3 9,1 8,6 23 12 43 23 ZW 1009,8 4,2 0 0,1
21.03.2017 03:00:00 9,2 6,2 8,8 8,3 9,1 8,6 27 15 48 26 ZW 1009,9 45 0 0,0
21.03.2017 02:00:00 9,5 6,0 9,1 8,3 9,2 8,6 32 17 49 26 ZW 1010,1 37 0 0,0
21.03.2017 01:00:00 9,6 5,7 9,1 8,3 9,3 8,6 27 14 46 25 ZW 1010,2 37 0 0,0
21.03.2017 00:00:00 9,5 5,2 8,9 8,4 9,4 8,5 24 13 42 23 ZW 1010,3 42 0 0,0
20.03.2017 23:00:00 9,6 5,0 9,0 8,5 9,5 8,5 23 12 39 21 ZW 1010,5 37 0 0,0
20.03.2017 22:00:00 9,7 4,9 9,1 8,6 9,6 8,5 24 13 40 22 ZW 1010,3 30 0 0,0
20.03.2017 21:00:00 9,8 4,5 9,2 8,7 9,7 8,5 27 14 44 24 ZW 1010,6 34 0 0,0
20.03.2017 20:00:00 9,9 4,2 9,3 8,9 9,8 8,5 29 16 44 24 ZW 1010,4 33 0 0,0
20.03.2017 19:00:00 9,8 4,0 9,2 9,3 9,9 8,5 27 15 40 22 ZW 1010,5 37 0 0,0
20.03.2017 18:00:00 9,7 3,9 9,4 9,7 9,9 8,5 27 14 50 27 ZW 1010,6 39 0 0,0
20.03.2017 17:00:00 10,2 4,2 9,9 10,4 9,9 8,5 39 21 60 32 ZW 1010,6 33 0 0,0
20.03.2017 16:00:00 10,5 5,3 10,6 10,9 9,9 8,5 32 17 48 26 ZW 1010,4 33 0 0,0
20.03.2017 15:00:00 10,7 5,7 11,0 11,2 9,8 8,5 28 15 48 26 ZW 1011,2 33 0 0,0
20.03.2017 14:00:00 10,9 6,8 11,7 12,0 9,6 8,5 27 15 51 28 ZW 1011,3 23 0 0,0
20.03.2017 13:00:00 10,7 6,9 11,9 12,2 9,3 8,5 32 17 44 24 ZW 1011,9 23 5 0,0
20.03.2017 12:00:00 12,3 7,2 15,2 12,9 9,1 8,5 28 15 43 23 ZW 1011,9 21 18 0,0
20.03.2017 11:00:00 10,5 7,0 11,1 10,1 9,0 8,5 26 14 41 22 ZW 1012,7 20 0 0,0
20.03.2017 10:00:00 10,1 7,1 10,9 9,4 8,9 8,5 19 10 29 16 ZW 1012,8 16 0 0,0
20.03.2017 09:00:00 9,5 6,8 9,4 8,6 8,9 8,5 20 11 31 17 ZW 1013,2 18 0 0,0
20.03.2017 08:00:00 9,2 6,7 9,0 8,3 9,0 8,5 19 10 35 19 ZW 1013,2 19 0 0,0
20.03.2017 07:00:00 8,9 6,2 8,4 8,1 9,0 8,5 22 12 34 18 ZW 1013,3 22 0 0,0
20.03.2017 06:00:00 8,9 5,3 8,2 8,1 9,1 8,5 19 10 35 19 ZW 1012,8 33 0 0,0
20.03.2017 05:00:00 9,0 5,6 8,5 8,3 9,2 8,5 22 12 34 18 ZZW 1013,0 30 0 0,0
20.03.2017 04:00:00 9,3 5,9 8,7 8,4 9,3 8,5 20 11 35 19 ZZW 1012,7 28 0 0,0
20.03.2017 03:00:00 9,4 6,4 8,8 8,5 9,3 8,5 19 11 39 21 ZW 1013,2 26 0 0,0
20.03.2017 02:00:00 9,8 5,8 9,1 8,6 9,4 8,5 20 11 33 18 ZW 1013,4 29 0 0,0
20.03.2017 01:00:00 9,9 5,9 9,2 8,8 9,5 8,5 16 9 30 16 ZW 1013,5 26 0 0,0
20.03.2017 00:00:00 10,2 6,1 9,6 8,9 9,6 8,5 16 8 35 19 W 1013,6 27 0 0,0

tt = temperatuur
td = dauwpunt
tt 5cm = temperatuur 5cm
tt -5cm = temperatuur -5cm
tt -20cm = temperatuur -20cm
tt -100cm = temperatuur -100cm
ff = windsnelheid
fx = windstoten
dd = windrichting
ppp = luchtdruk
vv = zicht
sd = Zonneschijnduur
rr = neerslag

Weerstations in de omgeving